DW5272 Weather Reports


time (UTC)temp
C
wind
direction
speed
KPH
gust
KPH
rain 1hr
cm
rain 24hr
cm
rain mn
cm
humidity
%
barometer
mb
20260507174743 11 241 4.8 14.5 0.00 0.00 0.00 47 1014.5
20260507174241 11 217 3.2 14.5 0.00 0.00 0.00 46 1014.5
20260507173738 10 257 3.2 8.0 0.00 0.00 0.00 48 1014.5
20260507173235 10 314 3.2 12.9 0.00 0.00 0.00 49 1014.8
20260507172731 10 254 4.8 12.9 0.00 0.00 0.00 50 1014.8
20260507172228 10 321 6.4 14.5 0.00 0.00 0.00 49 1014.8
20260507171728 10 276 6.4 20.9 0.00 0.00 0.00 48 1015.1
20260507171226 10 310 4.8 20.9 0.00 0.00 0.00 45 1015.1
20260507170723 10 307 6.4 17.7 0.00 0.00 0.00 52 1015.1
20260507170220 11 286 6.4 20.9 0.00 0.00 0.00 50 1015.1
20260507165715 10 316 6.4 20.9 0.00 0.00 0.00 46 1015.5
20260507165212 11 267 6.4 19.3 0.00 0.00 0.00 46 1015.1
20260507164708 10 300 4.8 19.3 0.00 0.00 0.00 51 1015.5
20260507164205 11 315 6.4 19.3 0.00 0.00 0.00 49 1015.5
20260507163702 10 237 8.0 20.9 0.00 0.00 0.00 51 1015.5
20260507163200 10 288 4.8 20.9 0.00 0.00 0.00 50 1015.5
20260507162655 10 240 4.8 12.9 0.00 0.00 0.00 50 1015.5
20260507162146 10 241 6.4 17.7 0.00 0.00 0.00 50 1015.5
20260507161642 10 284 8.0 20.9 0.00 0.00 0.00 50 1015.8
20260507161139 10 313 6.4 20.9 0.00 0.00 0.00 50 1015.8
20260507160636 10 238 6.4 20.9 0.00 0.00 0.00 52 1015.8
20260507160133 10 221 6.4 20.9 0.00 0.00 0.00 53 1015.8
20260507155628 10 295 6.4 12.9 0.00 0.00 0.00 52 1015.8
20260507155125 10 280 6.4 16.1 0.00 0.00 0.00 51 1015.8
20260507154621 10 198 6.4 17.7 0.00 0.00 0.00 51 1015.8
20260507154119 10 284 4.8 17.7 0.00 0.00 0.00 55 1015.8
20260507153615 9 310 4.8 14.5 0.00 0.00 0.00 54 1015.8
20260507153112 9 234 6.4 22.5 0.00 0.00 0.00 53 1015.8
20260507152608 10 242 6.4 22.5 0.00 0.00 0.00 50 1015.8
20260507152104 10 311 4.8 12.9 0.00 0.00 0.00 54 1015.8
20260507151600 10 294 8.0 24.1 0.00 0.00 0.00 58 1015.8
20260507151057 10 319 8.0 24.1 0.00 0.00 0.00 55 1015.8
20260507150554 10 311 8.0 22.5 0.00 0.00 0.00 58 1015.8
20260507150051 10 317 8.0 22.5 0.00 0.00 0.00 54 1015.8
20260507145546 10 299 8.0 22.5 0.00 0.00 0.00 58 1015.8
20260507145044 9 315 6.4 22.5 0.00 0.00 0.00 57 1015.8
20260507144540 9 279 4.8 22.5 0.00 0.00 0.00 56 1015.8
20260507144038 9 308 4.8 9.7 0.00 0.00 0.00 57 1015.8
20260507143534 9 213 4.8 16.1 0.00 0.00 0.00 62 1015.8
20260507143032 8 279 8.0 19.3 0.00 0.00 0.00 58 1015.8
20260507142527 8 309 6.4 19.3 0.00 0.00 0.00 59 1015.8
20260507142025 8 326 4.8 14.5 0.00 0.00 0.00 59 1015.8
20260507141521 9 288 4.8 14.5 0.00 0.00 0.00 60 1015.8
20260507141017 9 258 3.2 14.5 0.00 0.00 0.00 63 1015.8
20260507140514 8 292 3.2 12.9 0.00 0.00 0.00 65 1015.8
20260507140012 8 59 4.8 12.9 0.00 0.00 0.00 67 1015.8
20260507135509 8 306 4.8 12.9 0.00 0.00 0.00 68 1015.8
20260507135006 7 287 4.8 12.9 0.00 0.00 0.00 69 1015.8
20260507134502 7 9 4.8 12.9 0.00 0.00 0.00 67 1015.8
20260507133958 7 306 3.2 12.9 0.00 0.00 0.00 69 1015.8
20260507133454 7 257 3.2 12.9 0.00 0.00 0.00 67 1015.8
20260507132953 7 283 3.2 12.9 0.00 0.00 0.00 68 1015.8
20260507132448 7 261 4.8 16.1 0.00 0.00 0.00 67 1015.8
20260507131945 7 279 4.8 16.1 0.00 0.00 0.00 66 1015.5
20260507131442 8 298 6.4 19.3 0.00 0.00 0.00 66 1015.5
20260507130939 7 289 8.0 19.3 0.00 0.00 0.00 67 1015.5
20260507130436 7 338 4.8 17.7 0.00 0.00 0.00 68 1015.5
20260507125935 7 279 3.2 17.7 0.00 0.00 0.00 70 1015.5
20260507125433 6 293 1.6 6.4 0.00 0.00 0.00 70 1015.5
20260507124930 6 266 1.6 6.4 0.00 0.00 0.00 72 1015.5
20260507124426 6 267 1.6 6.4 0.00 0.00 0.00 73 1015.1
20260507123924 6 263 3.2 14.5 0.00 0.00 0.00 75 1015.1
20260507123421 6 242 3.2 14.5 0.00 0.00 0.00 75 1015.1
20260507122918 6 313 3.2 6.4 0.00 0.00 0.00 77 1015.1
20260507122413 6 260 3.2 9.7 0.00 0.00 0.00 79 1015.1
20260507121909 5 279 3.2 9.7 0.00 0.00 0.00 80 1015.1
20260507121404 5 281 1.6 4.8 0.00 0.00 0.00 82 1015.1
20260507120902 5 17 0.0 4.8 0.00 0.00 0.00 84 1015.1
20260507120358 5 291 0.0 4.8 0.00 0.00 0.00 85 1015.1
20260507115854 4 294 0.0 4.8 0.00 0.00 0.00 86 1015.1
20260507115350 3 36 0.0 3.2 0.00 0.00 0.00 86 1015.1
20260507114846 3 279 0.0 3.2 0.00 0.00 0.00 86 1015.1
20260507114343 3 277 0.0 3.2 0.00 0.00 0.00 87 1015.1
20260507113841 3 277 0.0 0.0 0.00 0.00 0.00 87 1014.8
20260507113337 2 277 0.0 0.0 0.00 0.00 0.00 87 1014.8
20260507112835 2 277 0.0 0.0 0.00 0.00 0.00 87 1014.8
20260507112332 2 277 0.0 0.0 0.00 0.00 0.00 88 1014.8
20260507111830 2 277 0.0 0.0 0.00 0.00 0.00 88 1014.8
20260507111326 1 277 0.0 0.0 0.00 0.00 0.00 89 1014.8
20260507110822 1 277 0.0 0.0 0.00 0.00 0.00 88 1014.8
20260507110319 1 277 0.0 0.0 0.00 0.00 0.00 88 1014.8
20260507105816 1 277 0.0 0.0 0.00 0.00 0.00 88 1014.5
20260507105312 1 277 0.0 0.0 0.00 0.00 0.00 88 1014.5
20260507104809 1 277 0.0 0.0 0.00 0.00 0.00 87 1014.5
20260507104306 1 277 0.0 0.0 0.00 0.00 0.00 87 1014.5
20260507103802 1 277 0.0 0.0 0.00 0.00 0.00 87 1014.5
20260507103258 1 277 0.0 0.0 0.00 0.00 0.00 86 1014.5
20260507102754 1 277 0.0 0.0 0.00 0.00 0.00 86 1014.5
20260507102251 1 277 0.0 0.0 0.00 0.00 0.00 86 1014.5
20260507101747 1 277 0.0 0.0 0.00 0.00 0.00 85 1014.1
20260507101242 1 277 0.0 0.0 0.00 0.00 0.00 85 1014.1
20260507100740 2 277 0.0 0.0 0.00 0.00 0.00 85 1014.1
20260507100238 2 277 0.0 3.2 0.00 0.00 0.00 84 1014.1
20260507095735 2 277 0.0 3.2 0.00 0.00 0.00 84 1014.1
20260507095226 2 277 0.0 0.0 0.00 0.00 0.00 84 1014.5
20260507094723 2 277 0.0 1.6 0.00 0.00 0.00 84 1014.5
20260507094220 2 277 0.0 1.6 0.00 0.00 0.00 84 1014.1
20260507093717 2 277 0.0 1.6 0.00 0.00 0.00 83 1014.1
20260507093216 2 277 0.0 1.6 0.00 0.00 0.00 83 1014.1
20260507092713 2 277 0.0 1.6 0.00 0.00 0.00 83 1014.1
20260507092209 2 277 0.0 1.6 0.00 0.00 0.00 83 1014.1
20260507091706 2 277 0.0 1.6 0.00 0.00 0.00 83 1014.1
20260507091202 2 277 0.0 0.0 0.00 0.00 0.00 83 1014.5
20260507090657 2 277 0.0 0.0 0.00 0.00 0.00 83 1014.5
20260507090155 3 277 0.0 0.0 0.00 0.00 0.00 82 1014.5
20260507085652 3 277 0.0 0.0 0.00 0.00 0.00 82 1014.5
20260507085149 3 277 0.0 0.0 0.00 0.00 0.00 82 1014.5
20260507084646 3 277 0.0 0.0 0.00 0.00 0.00 81 1014.5
20260507084142 3 277 0.0 0.0 0.00 0.00 0.00 80 1014.5
20260507083639 3 277 0.0 0.0 0.00 0.00 0.00 79 1014.5
20260507083136 3 277 0.0 0.0 0.00 0.00 0.00 79 1014.5
20260507082631 4 277 0.0 0.0 0.00 0.00 0.00 78 1014.5
20260507082128 4 277 0.0 1.6 0.00 0.00 0.00 77 1014.5
20260507081625 4 277 0.0 3.2 0.00 0.00 0.00 76 1014.5
20260507081121 5 277 0.0 3.2 0.00 0.00 0.00 74 1014.5
20260507080618 5 282 1.6 8.0 0.00 0.00 0.00 72 1014.8
20260507080114 5 306 3.2 8.0 0.00 0.00 0.00 70 1014.5
20260507075609 5 319 3.2 8.0 0.00 0.00 0.00 69 1014.5
20260507075105 5 330 3.2 9.7 0.00 0.00 0.00 69 1014.5
20260507074602 5 323 3.2 9.7 0.00 0.00 0.00 68 1014.5
20260507074101 5 305 3.2 9.7 0.00 0.00 0.00 67 1014.8
20260507073556 5 318 4.8 12.9 0.00 0.00 0.00 67 1014.8
20260507073053 6 306 3.2 12.9 0.00 0.00 0.00 67 1014.8
20260507072551 6 304 4.8 12.9 0.00 0.00 0.00 66 1014.5
20260507072048 6 281 6.4 17.7 0.00 0.00 0.00 65 1014.8
20260507071545 6 323 6.4 17.7 0.00 0.00 0.00 65 1014.8
20260507071041 6 319 4.8 12.9 0.00 0.00 0.00 65 1014.8
20260507070539 6 321 4.8 14.5 0.00 0.00 0.00 65 1014.8
20260507070035 6 291 6.4 14.5 0.00 0.00 0.00 65 1014.8
20260507065532 6 21 4.8 14.5 0.00 0.00 0.00 65 1014.8
20260507065029 6 296 4.8 12.9 0.00 0.00 0.00 65 1014.8
20260507064527 6 334 4.8 12.9 0.00 0.00 0.00 65 1014.8
20260507064025 6 294 4.8 12.9 0.00 0.00 0.00 65 1015.1
20260507063522 6 326 4.8 12.9 0.00 0.00 0.00 65 1015.1
20260507063019 6 325 3.2 8.0 0.00 0.00 0.00 65 1015.1
20260507062516 6 286 4.8 12.9 0.00 0.00 0.00 65 1015.1
20260507062014 6 238 6.4 19.3 0.00 0.00 0.00 64 1015.1
20260507061511 6 311 4.8 19.3 0.00 0.00 0.00 64 1015.1
20260507061009 6 298 4.8 12.9 0.00 0.00 0.00 64 1015.1
20260507060506 6 323 6.4 16.1 0.00 0.00 0.00 65 1015.1
20260507060003 6 337 6.4 16.1 0.00 0.00 0.00 64 1015.1
20260507055457 6 326 8.0 19.3 0.00 0.00 0.00 64 1015.1
20260507054954 6 294 9.7 22.5 0.00 0.00 0.00 63 1015.1
20260507054450 6 286 8.0 22.5 0.00 0.00 0.00 63 1015.1
20260507053948 6 304 6.4 19.3 0.00 0.00 0.00 64 1015.1
20260507053446 6 0 6.4 14.5 0.00 0.00 0.00 64 1015.1
20260507052944 6 289 4.8 16.1 0.00 0.00 0.00 65 1015.1
20260507052441 6 309 6.4 17.7 0.00 0.00 0.00 65 1015.1
20260507051938 6 314 6.4 17.7 0.00 0.00 0.00 65 1015.5
20260507051436 6 319 6.4 16.1 0.00 0.00 0.00 66 1015.1
20260507050932 6 288 6.4 14.5 0.00 0.00 0.00 66 1015.1
20260507050429 7 331 6.4 17.7 0.00 0.00 0.00 66 1015.5
20260507045926 7 318 6.4 17.7 0.00 0.00 0.00 66 1015.1
20260507045422 7 315 6.4 16.1 0.00 0.00 0.00 66 1015.5
20260507044920 7 302 6.4 19.3 0.00 0.00 0.00 66 1015.5
20260507044416 7 313 4.8 19.3 0.00 0.00 0.00 67 1015.1
20260507043912 7 343 6.4 19.3 0.00 0.00 0.00 67 1015.1
20260507043409 7 290 8.0 16.1 0.00 0.00 0.00 67 1015.1
20260507042905 7 270 6.4 14.5 0.00 0.00 0.00 68 1015.1
20260507042402 7 300 4.8 12.9 0.00 0.00 0.00 69 1015.1
20260507041857 7 312 4.8 16.1 0.00 0.00 0.00 70 1015.1
20260507041354 7 247 4.8 16.1 0.00 0.00 0.00 71 1015.1
20260507040852 7 309 3.2 11.3 0.00 0.00 0.00 72 1015.1
20260507040347 7 267 1.6 11.3 0.00 0.00 0.00 72 1015.1
20260507035844 7 279 1.6 9.7 0.00 0.00 0.00 71 1015.1
20260507035339 6 250 0.0 3.2 0.00 0.00 0.00 70 1015.1
20260507034837 6 226 0.0 1.6 0.00 0.00 0.00 70 1015.1
20260507034334 6 226 0.0 1.6 0.00 0.00 0.00 70 1015.1
20260507033832 6 226 0.0 1.6 0.00 0.00 0.00 70 1015.1
20260507033330 6 225 0.0 0.0 0.00 0.00 0.00 69 1015.1
20260507032826 6 225 0.0 0.0 0.00 0.00 0.00 69 1015.1
20260507032322 6 225 0.0 1.6 0.00 0.00 0.00 68 1015.1
20260507031819 6 225 0.0 3.2 0.00 0.00 0.00 68 1015.1
20260507031316 7 225 0.0 3.2 0.00 0.00 0.00 68 1014.8
20260507030812 7 225 0.0 3.2 0.00 0.00 0.00 67 1015.1
20260507030310 7 225 0.0 3.2 0.00 0.00 0.00 66 1015.1
20260507025807 7 225 0.0 3.2 0.00 0.00 0.00 66 1015.1
20260507025306 7 225 0.0 3.2 0.00 0.00 0.00 66 1015.1
20260507024802 7 225 0.0 3.2 0.00 0.00 0.00 65 1015.1
20260507024259 7 250 0.0 1.6 0.00 0.00 0.00 66 1015.1
20260507023755 7 250 0.0 1.6 0.00 0.00 0.00 64 1015.1
20260507023251 7 216 0.0 3.2 0.00 0.00 0.00 65 1015.1
20260507022749 7 216 0.0 3.2 0.00 0.00 0.00 65 1015.1
20260507022245 7 216 0.0 3.2 0.00 0.00 0.00 64 1015.1
20260507021741 7 217 1.6 4.8 0.00 0.00 0.00 64 1015.1
20260507021237 7 217 1.6 4.8 0.00 0.00 0.00 63 1015.1
20260507020735 7 216 1.6 4.8 0.00 0.00 0.00 62 1014.8
20260507020231 7 228 0.0 4.8 0.00 0.00 0.00 62 1014.8
20260507015729 7 207 0.0 4.8 0.00 0.00 0.00 62 1014.8
20260507015226 7 206 1.6 4.8 0.00 0.00 0.00 61 1014.8
20260507014723 7 216 1.6 4.8 0.00 0.00 0.00 60 1015.1
20260507014219 7 216 1.6 4.8 0.00 0.00 0.00 59 1015.1
20260507013716 7 223 1.6 4.8 0.00 0.00 0.00 59 1015.1
20260507013214 7 223 1.6 4.8 0.00 0.00 0.00 58 1014.8
20260507012711 7 232 0.0 3.2 0.00 0.00 0.00 57 1014.8
20260507012206 8 232 1.6 4.8 0.00 0.00 0.00 57 1014.8
20260507011704 8 211 1.6 4.8 0.00 0.00 0.00 57 1014.8
20260507011200 8 198 1.6 3.2 0.00 0.00 0.00 57 1014.8
20260507010700 8 200 1.6 4.8 0.00 0.00 0.00 57 1014.8
20260507010156 8 212 3.2 6.4 0.00 0.00 0.00 56 1014.8
20260507005654 8 219 3.2 6.4 0.00 0.00 0.00 55 1014.8
20260507005155 8 223 1.6 6.4 0.00 0.00 0.00 56 1014.8
20260507004652 8 227 1.6 6.4 0.00 0.00 0.00 56 1014.8
20260507004149 8 207 1.6 4.8 0.00 0.00 0.00 56 1014.8
20260507003646 8 200 1.6 4.8 0.00 0.00 0.00 57 1014.8
20260507003145 8 196 1.6 9.7 0.00 0.00 0.00 56 1014.8
20260507002642 8 196 3.2 9.7 0.00 0.00 0.00 54 1014.5
20260507002138 8 192 3.2 6.4 0.00 0.00 0.00 54 1014.5
20260507001635 8 279 3.2 8.0 0.00 0.00 0.00 54 1014.5
20260507001133 8 184 3.2 8.0 0.00 0.00 0.00 55 1014.5
20260507000629 8 200 3.2 8.0 0.00 0.00 0.00 54 1014.5
20260507000124 8 184 4.8 8.0 0.00 0.00 0.00 54 1014.5
20260506235622 8 187 4.8 9.7 0.00 0.00 0.00 53 1014.5
20260506235122 8 219 4.8 9.7 0.00 0.00 0.00 53 1014.5
20260506234619 8 199 3.2 6.4 0.00 0.00 0.00 53 1014.5
20260506234116 8 236 3.2 6.4 0.00 0.00 0.00 53 1014.5
20260506233613 8 197 4.8 8.0 0.00 0.00 0.00 52 1014.5
20260506233110 8 227 4.8 11.3 0.00 0.00 0.00 52 1014.5
20260506232606 9 226 4.8 11.3 0.00 0.00 0.00 52 1014.5
20260506232102 9 189 4.8 11.3 0.00 0.00 0.00 50 1014.5
20260506231559 9 207 6.4 11.3 0.00 0.00 0.00 51 1014.5
20260506231057 9 226 4.8 11.3 0.00 0.00 0.00 50 1014.5
20260506230553 9 215 6.4 11.3 0.00 0.00 0.00 51 1014.5
20260506230051 9 223 4.8 11.3 0.00 0.00 0.00 51 1014.5
20260506225548 10 213 3.2 9.7 0.00 0.00 0.00 50 1014.5
20260506225044 10 231 3.2 9.7 0.00 0.00 0.00 51 1014.5
20260506224541 10 230 4.8 9.7 0.00 0.00 0.00 52 1014.5
20260506224037 10 224 4.8 9.7 0.00 0.00 0.00 50 1014.5
20260506223533 10 169 3.2 8.0 0.00 0.00 0.00 50 1014.5
20260506223030 10 192 3.2 8.0 0.00 0.00 0.00 50 1014.5
20260506222527 10 233 4.8 8.0 0.00 0.00 0.00 51 1014.5
20260506222023 10 209 6.4 11.3 0.00 0.00 0.00 51 1014.5
20260506221521 10 186 8.0 12.9 0.00 0.00 0.00 50 1014.5
20260506221019 10 219 6.4 12.9 0.00 0.00 0.00 50 1014.5
20260506220514 10 190 6.4 12.9 0.00 0.00 0.00 49 1014.5
20260506220010 10 225 6.4 16.1 0.00 0.00 0.00 49 1014.5
20260506215507 10 162 6.4 16.1 0.00 0.00 0.00 50 1014.5
20260506215003 11 189 6.4 14.5 0.00 0.00 0.00 49 1014.5
20260506214500 11 207 8.0 14.5 0.00 0.00 0.00 48 1014.5
20260506213957 11 221 8.0 17.7 0.00 0.00 0.00 45 1014.1
20260506213455 12 202 8.0 19.3 0.00 0.00 0.00 46 1014.1
20260506212952 12 159 4.8 16.1 0.00 0.00 0.00 45 1014.1
20260506212448 12 212 4.8 9.7 0.00 0.00 0.00 46 1014.1
20260506211943 12 192 4.8 16.1 0.00 0.00 0.00 45 1014.1
20260506211439 12 237 4.8 16.1 0.00 0.00 0.00 47 1014.5
20260506210936 12 209 6.4 19.3 0.00 0.00 0.00 46 1014.5
20260506210433 11 159 8.0 19.3 0.00 0.00 0.00 46 1014.5
20260506205930 12 213 8.0 20.9 0.00 0.00 0.00 44 1014.5
20260506205426 12 226 6.4 20.9 0.00 0.00 0.00 44 1014.5
20260506204922 12 207 8.0 16.1 0.00 0.00 0.00 44 1014.5
20260506204420 12 244 9.7 17.7 0.00 0.00 0.00 47 1014.5
20260506203918 12 230 9.7 17.7 0.00 0.00 0.00 45 1014.5
20260506203415 12 182 11.3 22.5 0.00 0.00 0.00 44 1014.5
20260506202911 12 207 8.0 22.5 0.00 0.00 0.00 43 1014.5
20260506202409 12 157 6.4 16.1 0.00 0.00 0.00 43 1014.5
20260506201905 12 244 8.0 16.1 0.00 0.00 0.00 46 1014.5
20260506201403 12 224 8.0 17.7 0.00 0.00 0.00 44 1014.5
20260506200859 12 183 8.0 17.7 0.00 0.00 0.00 46 1014.5
20260506200355 12 212 9.7 16.1 0.00 0.00 0.00 46 1014.5
20260506195852 12 196 9.7 19.3 0.00 0.00 0.00 46 1014.8
20260506195349 12 208 8.0 19.3 0.00 0.00 0.00 44 1014.5
20260506194846 12 207 8.0 17.7 0.00 0.00 0.00 46 1014.8
20260506194342 12 210 8.0 14.5 0.00 0.00 0.00 45 1014.8
20260506193840 12 214 8.0 14.5 0.00 0.00 0.00 47 1014.8
20260506193337 12 196 8.0 14.5 0.00 0.00 0.00 45 1014.5
20260506192833 13 202 6.4 12.9 0.00 0.00 0.00 44 1014.5
20260506192330 13 215 8.0 17.7 0.00 0.00 0.00 46 1014.5
20260506191827 12 242 6.4 17.7 0.00 0.00 0.00 43 1014.5
20260506191323 12 198 4.8 16.1 0.00 0.00 0.00 45 1014.5
20260506190820 12 173 8.0 16.1 0.00 0.00 0.00 45 1014.5
20260506190316 12 163 9.7 22.5 0.00 0.00 0.00 43 1014.5
20260506185814 12 166 9.7 22.5 0.00 0.00 0.00 44 1014.5
20260506185310 12 195 9.7 17.7 0.00 0.00 0.00 47 1014.5
20260506184808 12 200 8.0 17.7 0.00 0.00 0.00 43 1014.5
20260506184305 12 189 9.7 17.7 0.00 0.00 0.00 48 1014.5
20260506183802 12 184 9.7 16.1 0.00 0.00 0.00 47 1014.5
20260506183257 12 217 9.7 16.1 0.00 0.00 0.00 48 1014.5
20260506182754 12 158 9.7 17.7 0.00 0.00 0.00 48 1014.5
20260506182252 12 207 8.0 17.7 0.00 0.00 0.00 47 1014.5
20260506181749 12 175 8.0 17.7 0.00 0.00 0.00 45 1014.5
20260506181247 12 218 8.0 19.3 0.00 0.00 0.00 51 1014.5
20260506180744 12 194 6.4 19.3 0.00 0.00 0.00 45 1014.5
20260506180239 12 242 6.4 16.1 0.00 0.00 0.00 51 1014.5
20260506175736 12 236 8.0 14.5 0.00 0.00 0.00 47 1014.8
20260506175233 12 194 6.4 16.1 0.00 0.00 0.00 49 1014.8